Provincetown, MA

5:11 AM EDT on June 27, 2017 (GMT -0400)
Provincetown Municipal

Weather History for KPVC - September, 2013

Change the Weather History Date:

Monday, September 9, 2013

  Actual Average Record
Temperature  
Mean Temperature 60 °F -  
Max Temperature 66 °F 70 °F 89 °F (2016)
Min Temperature 55 °F 57 °F 44 °F (2003)
Degree Days  
Heating Degree Days 4    
Growing Degree Days 10 (Base 50)    
Moisture  
Dew Point 45 °F    
Average Humidity 56    
Maximum Humidity 77    
Minimum Humidity 44    
Precipitation  
Precipitation 3.11 in - - ()
Sea Level Pressure  
Sea Level Pressure 30.19 in    
Wind  
Wind Speed 10 mph (West)    
Max Wind Speed 17 mph    
Max Gust Speed 23 mph    
Visibility 10 miles    
Events      
Averages and records for this station are not official NWS values.
T = Trace of Precipitation, MM = Missing Value Source: NWS Daily Summary

Daily Weather History Graph

Daily Weather History Graph

Search for Another Location

Airport or City:

Trip Planner

Search our weather history database for the weather conditions in past years. The results will help you decide how hot, cold, wet, or windy it might be!

Date:

Astronomy

Sep. 09, 2013 Rise Set
Actual Time 6:14 AM EDT 7:00 PM EDT
Civil Twilight 5:46 AM EDT 7:28 PM EDT
Nautical Twilight 5:13 AM EDT 8:02 PM EDT
Astronomical Twilight 4:38 AM EDT 8:36 PM EDT
Moon 10:38 AM EDT (9/9) 9:09 PM EDT (9/9)
Length of Visible Light 13h 42m
Length of Day
12h 45m
Waxing Crescent, 19% of the Moon is Illuminated
Sep 9
Waxing Crescent
Sep 12
First Quarter
Sep 19
Full
Sep 26
Last Quarter
Oct 4
New

Hourly Weather History & Observations

Time (EDT) Temp. Dew Point Humidity Pressure Visibility Wind Dir Wind Speed Gust Speed Precip Events Conditions
12:15 AM 59.0 °F 46.4 °F 63% 30.09 in 10.0 mi North 13.8 mph - 0.72 in   Clear
12:35 AM 59.0 °F 44.6 °F 59% 30.09 in 10.0 mi North 12.7 mph - 1.01 in   Clear
12:55 AM 59.0 °F 44.6 °F 59% 30.10 in 10.0 mi North 10.4 mph - 1.02 in   Clear
1:15 AM 59.0 °F 42.8 °F 55% 30.10 in 10.0 mi North 11.5 mph 16.1 mph N/A   Clear
1:35 AM 59.0 °F 42.8 °F 55% 30.10 in 10.0 mi NNE 10.4 mph 16.1 mph N/A   Scattered Clouds
1:55 AM 57.2 °F 41.0 °F 55% 30.10 in 10.0 mi NNE 12.7 mph 16.1 mph N/A   Partly Cloudy
2:15 AM 57.2 °F 41.0 °F 55% 30.10 in 10.0 mi NNE 12.7 mph - N/A   Clear
2:35 AM 57.2 °F 42.8 °F 59% 30.11 in 10.0 mi NE 10.4 mph - N/A   Clear
2:55 AM 57.2 °F 41.0 °F 55% 30.12 in 10.0 mi NNE 9.2 mph - 0.01 in   Clear
3:15 AM 57.2 °F 39.2 °F 51% 30.12 in 10.0 mi NNE 9.2 mph - 0.02 in   Clear
3:35 AM 57.2 °F 39.2 °F 51% 30.13 in 10.0 mi NNE 9.2 mph - 0.02 in   Clear
3:55 AM 57.2 °F 37.4 °F 48% 30.13 in 10.0 mi NNE 13.8 mph - 0.04 in   Clear
4:15 AM 57.2 °F 37.4 °F 48% 30.15 in 10.0 mi NE 9.2 mph - 0.05 in   Clear
4:35 AM 57.2 °F 37.4 °F 48% 30.15 in 10.0 mi NE 9.2 mph - 0.09 in   Clear
4:55 AM 57.2 °F 35.6 °F 44% 30.16 in 10.0 mi NNE 8.1 mph - 0.09 in   Clear
5:15 AM 57.2 °F 37.4 °F 48% 30.16 in 10.0 mi NNE 9.2 mph - N/A   Clear
5:35 AM 57.2 °F 37.4 °F 48% 30.17 in 10.0 mi NNE 10.4 mph - 0.01 in   Clear
5:55 AM 55.4 °F 37.4 °F 51% 30.18 in 10.0 mi NE 8.1 mph - 0.01 in   Clear
6:15 AM 55.4 °F 37.4 °F 51% 30.19 in 10.0 mi NE 6.9 mph - N/A   Clear
6:35 AM 55.4 °F 37.4 °F 51% 30.20 in 10.0 mi NNE 6.9 mph - N/A   Clear
6:55 AM 57.2 °F 37.4 °F 48% 30.20 in 10.0 mi NNE 8.1 mph - N/A   Clear
7:15 AM 57.2 °F 39.2 °F 51% 30.21 in 10.0 mi NNE 5.8 mph - N/A   Clear
7:35 AM 59.0 °F 39.2 °F 48% 30.22 in 10.0 mi NNE 4.6 mph - 0.01 in   Clear
7:55 AM 60.8 °F 39.2 °F 45% 30.22 in 10.0 mi NNE 4.6 mph - 0.01 in   Clear
8:15 AM 60.8 °F 39.2 °F 45% 30.23 in 10.0 mi NE 4.6 mph - N/A   Clear
8:35 AM 60.8 °F 39.2 °F 45% 30.23 in 10.0 mi North 5.8 mph - N/A   Clear
8:55 AM 60.8 °F 39.2 °F 45% 30.24 in 10.0 mi North 3.5 mph - N/A   Clear
9:15 AM 62.6 °F 46.4 °F 55% 30.25 in 10.0 mi NNW 6.9 mph - N/A   Clear
9:35 AM 60.8 °F 44.6 °F 55% 30.24 in 10.0 mi North 3.5 mph - N/A   Clear
9:55 AM 62.6 °F 44.6 °F 52% 30.25 in 10.0 mi North 3.5 mph - N/A   Clear
10:15 AM 62.6 °F 44.6 °F 52% 30.25 in 10.0 mi North 5.8 mph - N/A   Clear
10:35 AM 62.6 °F 46.4 °F 55% 30.25 in 10.0 mi NW 5.8 mph - N/A   Clear
10:55 AM 62.6 °F 44.6 °F 52% 30.25 in 10.0 mi West 5.8 mph - N/A   Clear
11:15 AM 64.4 °F 46.4 °F 52% 30.24 in 10.0 mi West 6.9 mph - N/A   Clear
11:35 AM 64.4 °F 44.6 °F 49% 30.24 in 10.0 mi WSW 5.8 mph - N/A   Clear
11:55 AM 64.4 °F 44.6 °F 49% 30.24 in 10.0 mi WSW 5.8 mph - N/A   Clear
12:15 PM 64.4 °F 46.4 °F 52% 30.24 in 10.0 mi SW 8.1 mph - N/A   Clear
12:35 PM 64.4 °F 46.4 °F 52% 30.23 in 10.0 mi South 9.2 mph - N/A   Clear
12:55 PM 64.4 °F 42.8 °F 45% 30.23 in 10.0 mi WSW 8.1 mph - N/A   Clear
1:15 PM 64.4 °F 42.8 °F 45% 30.22 in 10.0 mi SSW 5.8 mph - N/A   Clear
1:35 PM 64.4 °F 42.8 °F 45% 30.22 in 10.0 mi SSW 9.2 mph - N/A   Clear
1:55 PM 64.4 °F 44.6 °F 49% 30.21 in 10.0 mi South 9.2 mph - N/A   Clear
2:15 PM 66.2 °F 46.4 °F 49% 30.21 in 10.0 mi SSW 10.4 mph - N/A   Clear
2:35 PM 66.2 °F 46.4 °F 49% 30.20 in 10.0 mi South 11.5 mph - N/A   Clear
2:55 PM 64.4 °F 44.6 °F 49% 30.20 in 10.0 mi South 9.2 mph - N/A   Clear
3:15 PM 64.4 °F 46.4 °F 52% 30.20 in 10.0 mi SSW 8.1 mph - 0.01 in   Clear
3:35 PM 66.2 °F 46.4 °F 49% 30.20 in 10.0 mi SSW 10.4 mph - 0.01 in   Clear
3:55 PM 64.4 °F 46.4 °F 52% 30.20 in 10.0 mi SSW 9.2 mph - 0.01 in   Clear
4:15 PM 66.2 °F 46.4 °F 49% 30.20 in 10.0 mi SSW 10.4 mph - 0.01 in   Clear
4:35 PM 64.4 °F 48.2 °F 56% 30.20 in 10.0 mi SW 15.0 mph - 0.01 in   Clear
4:55 PM 62.6 °F 46.4 °F 55% 30.20 in 10.0 mi SW 17.3 mph 20.7 mph 0.01 in   Clear
5:15 PM 62.6 °F 46.4 °F 55% 30.20 in 10.0 mi SW 17.3 mph 23.0 mph N/A   Clear
5:35 PM 62.6 °F 46.4 °F 55% 30.20 in 10.0 mi SSW 16.1 mph - N/A   Clear
5:55 PM 62.6 °F 48.2 °F 59% 30.19 in 10.0 mi SSW 15.0 mph 21.9 mph N/A   Clear
6:15 PM 62.6 °F 48.2 °F 59% 30.19 in 10.0 mi SW 17.3 mph 20.7 mph 0.06 in   Clear
6:35 PM 60.8 °F 48.2 °F 63% 30.19 in 10.0 mi SW 17.3 mph 20.7 mph 0.20 in   Clear
6:55 PM 60.8 °F 48.2 °F 63% 30.19 in 10.0 mi SW 13.8 mph - 0.30 in   Clear
7:15 PM 60.8 °F 50.0 °F 68% 30.20 in 10.0 mi SSW 13.8 mph - 0.09 in   Clear
7:35 PM 60.8 °F 51.8 °F 72% 30.19 in 10.0 mi SSW 13.8 mph - 0.20 in   Clear
7:55 PM 60.8 °F 51.8 °F 72% 30.19 in 10.0 mi SW 12.7 mph 20.7 mph 0.33 in   Clear
8:15 PM 60.8 °F 51.8 °F 72% 30.19 in 10.0 mi SSW 13.8 mph 19.6 mph 0.32 in   Clear
8:35 PM 60.8 °F 51.8 °F 72% 30.19 in 10.0 mi SSW 11.5 mph - 0.62 in   Clear
8:55 PM 60.8 °F 51.8 °F 72% 30.19 in 10.0 mi SSW 12.7 mph - 1.03 in   Clear
9:15 PM 60.8 °F 51.8 °F 72% 30.19 in 10.0 mi SSW 12.7 mph - 0.10 in   Clear
9:35 PM 60.8 °F 51.8 °F 72% 30.20 in 10.0 mi SSW 12.7 mph - 0.10 in   Clear
9:55 PM 60.8 °F 53.6 °F 77% 30.20 in 10.0 mi SSW 13.8 mph - 0.12 in   Clear
10:15 PM 60.8 °F 53.6 °F 77% 30.19 in 10.0 mi SW 10.4 mph - 0.02 in   Clear
10:35 PM 60.8 °F 53.6 °F 77% 30.19 in 10.0 mi SSW 10.4 mph - 0.02 in   Clear
10:55 PM 60.8 °F 53.6 °F 77% 30.19 in 10.0 mi SW 13.8 mph 17.3 mph 0.08 in   Clear
11:15 PM 60.8 °F 53.6 °F 77% 30.20 in 10.0 mi SW 12.7 mph - N/A   Clear
11:35 PM 60.8 °F 53.6 °F 77% 30.20 in 10.0 mi SW 12.7 mph - 0.02 in   Clear
11:55 PM 60.8 °F 53.6 °F 77% 30.19 in 10.0 mi SW 10.4 mph - 0.05 in   Clear